Weather observations for the past three days for
Mount Washington
Metric (Imperial)
Date Time (edt) Wind (kph) Vis. (km) Weather Sky Cond. Temperature (ºC) Relative Humidity Wind Chill (°C) Heat Index (°C) Pressure Precipitation (cm)
Air Dwpt 6 hour altimeter (cm) sea level (mb) 1 hr 3 hr 6 hr
Max. Min.
06 02:55 N 15 0.10 Light Rain Fog VV001 3 3 100% -0 0 0.0
06 01:54 N 4 0.21 Light Showers Rain Fog VV002 4 4 4.3 3.3 100% 0 0.0 0.03
06 00:53 E 19 0.10 Fog VV000 4 4 100% 0 0 0.0
05 23:52 E 22 G 30 0.10 Fog VV000 4 4 100% -0 0 0.0
05 22:47 E 30 G 41 0.10 Fog VV000 4 4 100% -1 0 0.0
05 21:55 E 30 0.10 Fog VV002 4 4 100% -1 0 0.0
05 20:55 NE 31 G 43 0.10 Fog VV002 4 4 100% -1 0 0.0
05 19:55 NE 30 0.21 Mostly Cloudy BKN000 BKN010 BKN030 BKN100 4.3 4 7.8 4.1 98% -0 0 0.0 0.33
05 18:54 NE 33 0.10 Heavy Drizzle Fog and Breezy VV001 5 5 100% 0 0 0.0
05 17:47 NE 28 0.10 Fog SCT000 BKN030 BKN040 5.6 5.5 99% 1 0 0.0
05 16:50 N 33 0.10 Light Drizzle Fog and Breezy VV001 7 7 100% 3 0 0.0
05 15:53 NE 30 0.10 Drizzle Fog VV002 7 7 100% 3 0 0.0
05 13:48 N 22 0.10 Light Drizzle Fog VV002 7 7 7.5 5.7 100% 4 0 0.0 0.15
05 12:52 NE 17 0.10 Light Drizzle Fog VV002 7 7 100% 4 0 0.0
05 11:54 NE 15 0.10 Fog VV002 7 7 100% 5 0 0.0
05 10:52 NE 19 0.10 Light Drizzle Fog VV002 7 7 100% 4 0 0.0
05 09:55 NE 24 0.10 Fog VV002 7 7 100% 4 0 0.0
05 08:50 N 46 G 57 0.00 Fog and Windy VV000 6 6 100% 1 0 0.0
05 07:47 N 33 G 46 0.00 Fog and Breezy VV000 6 6 7.2 5.6 100% 1 0 0.0
05 06:50 N 39 G 54 0.10 Fog and Breezy VV002 6 6 100% 1 0 0.0
05 05:51 N 39 G 56 0.10 Fog and Breezy BKN000 BKN030 5.9 5.7 99% 1 0 0.0
05 04:50 N 48 0.10 Fog and Windy VV002 6 6 100% 1 0 0.0
05 03:50 NW 50 0.10 Fog and Windy VV000 7 7 100% 2 0 0.0
05 02:51 N 35 G 50 0.21 Fog and Breezy VV001 7 7 100% 3 0 0.0
05 01:50 NW 44 G 56 0.10 Fog and Windy VV000 7 7 7.5 6.6 100% 2 0 0.0
05 00:51 NW 35 G 67 0.00 Fog and Breezy VV000 7 7 100% 3 0 0.0
04 23:59 NW 41 G 63 0.00 Fog and Breezy VV000 7 7 100% 2 0 0.0
04 22:51 NW 41 G 57 0.10 Fog and Breezy VV000 7 7 100% 2 0 0.0
04 21:53 NW 46 G 76 0.10 Fog and Windy VV000 7 7 100% 2 0 0.0
04 20:52 NW 59 G 70 0.10 Fog and Windy VV002 7 7 100% 1 0 0.0
04 19:51 NW 54 G 76 0.00 Fog and Windy VV000 7 7 8.5 6.9 100% 2 0 0.0 0.03
04 18:55 NW 61 G 76 0.10 Fog and Windy VV000 7 7 100% 1 0 0.0
04 17:49 NW 43 G 72 0.00 Fog and Windy VV000 8 8 100% 3 0 0.0
04 16:54 NW 54 G 70 0.00 Fog and Windy VV000 8 8 100% 3 0 0.0
04 15:49 NW 54 G 85 0.00 Light Showers Rain Fog and Windy VV000 9 9 100% 4 0 0.0
04 14:50 NW 59 G 72 0.00 Fog and Windy VV000 8 8 100% 3 0 0.0
04 13:48 W 50 G 63 0.00 Fog and Windy VV000 8 8 9.4 7.5 100% 3 0 0.0 0.13
04 12:47 NW 44 G 67 0.00 Fog and Windy VV000 8 8 100% 3 0 0.0
04 11:54 N 30 G 57 0.10 Fog VV002 8 8 100% 4 0 0.0
04 10:53 N 41 G 61 0.10 Light Drizzle Fog and Breezy VV000 8 8 100% 4 0 0.0
04 09:52 NW 41 G 61 0.10 Fog and Breezy VV000 9 9 100% 5 0 0.0
04 08:55 NW 37 G 69 0.00 Fog and Breezy VV000 9 9 100% 5 0 0.0
04 07:47 NW 57 0.00 Fog and Windy VV000 8 8 9.5 8.3 100% 3 0 0.0
04 05:54 NW 57 G 72 0.10 Fog and Windy VV000 9 9 100% 4 0 0.0
04 04:51 NW 56 G 65 0.00 Fog and Windy VV000 9 9 100% 4 0 0.0
04 03:47 NW 57 G 65 0.10 Fog and Windy VV002 9 9 100% 4 0 0.0
04 02:55 W 61 G 72 0.10 Fog and Windy BKN000 9 9 100% 4 0 0.0
04 01:51 NW 61 0.10 Fog and Windy VV002 9 9 10.8 9.1 100% 4 0 0.0 0.69
04 00:52 NW 63 G 81 0.00 Fog and Windy VV000 9 9 100% 4 0 0.0
03 23:59 W 56 G 69 0.00 Fog and Windy VV000 10 10 100% 6 0 0.0
03 22:50 NW 57 G 69 0.00 Fog and Windy VV000 10 10 100% 6 0 0.0
03 21:49 NW 63 0.00 Fog and Windy VV000 10 10 100% 5 0 0.0
03 20:53 NW 61 0.00 Fog and Windy VV000 11 11 100% 0 0.0
03 19:52 W 50 G 56 0.10 Showers Rain Fog and Windy VV000 10 10 11.8 10.2 100% 6 0 0.0 0.3
03 18:55 W 44 0.00 Light Showers Rain Fog and Windy VV000 11 11 100% 0 0.0
03 17:59 W 63 G 83 0.00 Fog and Windy VV000 11 11 100% 0 0.0
03 16:49 W 54 G 78 0.00 Fog and Windy VV000 11 11 100% 0 0.0
03 15:48 W 56 G 69 0.10 Fog and Windy VV001 11 11 100% 0 0.0
03 14:51 W 50 G 59 0.10 Fog and Windy VV002 11 11 100% 0 0.0
03 13:47 W 44 0.00 Fog and Windy VV000 12 12 12 9.2 100% 0 0.0 0.03
03 12:59 W 46 0.00 Fog and Windy VV000 11 11 100% 0 0.0
03 11:59 W 37 0.00 Fog and Breezy VV000 12 12 100% 0 0.0
03 10:56 W 37 0.00 Fog and Breezy VV000 11 11 100% 0 0.0
03 09:55 W 41 0.00 Fog and Breezy VV000 11 11 100% 0 0.0
03 08:50 W 50 0.00 Light Drizzle Fog and Windy VV000 10 10 100% 6 0 0.0
03 07:47 W 46 0.00 Fog and Windy VV000 9 9 9.8 5.5 100% 5 0 0.0 0.94
03 06:50 W 56 0.00 Fog and Windy VV000 9 9 100% 4 0 0.0
03 05:47 SW 50 G 72 0.10 Light Showers Rain Light Drizzle Fog and Windy VV000 9 9 100% 4 0 0.0
Date Time (edt) Wind (kph) Vis. (km) Weather Sky Cond. Air Dwpt Max. Min. Relative Humidity Wind Chill (°C) Heat Index (°C) altimeter (cm) sea level (mb) 1 hr 3 hr 6 hr
6 hour
Temperature (ºC) Pressure Precipitation (cm)